Regional Weather Roundup
Issued by NWS Wilmington, NC

Home | Current Version | Previous Version | Text Only | Print | Product List | Glossary On
Versions: 1 2 3 4 5 6 7 8 9 10 11 12 13 14 15 16 17 18 19 20 21 22 23 24 25 26 27 28
000
ASUS42 KILM 010613
RWRILM
RWRILM
REGIONAL HOURLY WEATHER ROUNDUP
NATIONAL WEATHER SERVICE WILMINGTON NC
200 AM EDT WED JUN 01 2016

NOTE: "FAIR" INDICATES FEW OR NO CLOUDS BELOW 12,000 FEET WITH NO
SIGNIFICANT WEATHER AND/OR OBSTRUCTIONS TO VISIBILITY.

...............WFO WILMINGTON COUNTY WARNING AREA...............

......COASTAL NC AND SC COUNTIES......

CITY           SKY/WX    TMP DP  RH WIND       PRES   REMARKS
WILMINGTON     LGT RAIN  73  72  96 N8        29.91F
N MYRTLE BEACH CLOUDY    74  71  91 N7        29.91S
MYRTLE BEACH   CLOUDY    73  66  78 NW6       29.94S

......INLAND NC AND SC COUNTIES.......

CITY           SKY/WX    TMP DP  RH WIND       PRES   REMARKS
LUMBERTON      MOCLDY    73  70  90 N5        29.94F
ELIZABETHTOWN  CLOUDY    72  72  98 CALM      29.94S
WHITEVILLE     CLOUDY    73  71  94 CALM      29.93S
FLORENCE       CLEAR     72  69  90 N6        29.95F
DARLINGTON     CLEAR     71  70  96 CALM      29.97S
KINGSTREE      FAIR      68  64  88 CALM      29.94F
HARTSVILLE     MOCLDY    70  68  94 CALM      29.96F
BENNETTSVILLE  FAIR      72  70  94 CALM      29.95F
CONWAY         CLOUDY    70  70 100 CALM      29.93F
GEORGETOWN     FAIR      68  68 100 CALM      29.94F
MARION         CLOUDY    70  70 100 CALM      29.94F

....................REST OF NORTH CAROLINA......................

.........EASTERN NC.........

CITY           SKY/WX    TMP DP  RH WIND       PRES   REMARKS
CAPE HATTERAS  CLOUDY    73  72  96 CALM      29.95F
JACKSONVILLE   CLOUDY    71  71 100 NE6       29.93F
MOREHEAD CITY  MOCLDY    73  72  96 E3        29.93F
KENANSVILLE    CLOUDY    71  70  97 CALM      29.95F
NEW BERN       CLOUDY    72  69  90 NE5       29.95S
ELIZABETH CITY CLEAR     70  68  93 NE6       29.97F

.........CENTRAL NC.........

CITY           SKY/WX    TMP DP  RH WIND       PRES   REMARKS
RALEIGH DURHAM PTCLDY    68  67  96 CALM      29.98F
ROCKY MOUNT    MOCLDY    70  68  93 NE5       29.97S
ROANOKE RAPIDS NOT AVBL
FAYETTEVILLE   PTCLDY    72  69  90 N6        29.95F
HOFFMAN        CLEAR     70  68  93 N3        29.96F

.........WESTERN NC.........

CITY           SKY/WX    TMP DP  RH WIND       PRES   REMARKS
CHARLOTTE      PTCLDY    67  65  93 N3        30.00S
GREENSBORO     PTCLDY    71  67  87 CALM      30.01R
HICKORY        NOT AVBL
BOONE          NOT AVBL
ASHEVILLE      NOT AVBL

.....................REST OF SOUTH CAROLINA.....................

.........EASTERN SC.........

CITY           SKY/WX    TMP DP  RH WIND       PRES   REMARKS
CHARLESTON     MOCLDY    74  71  91 CALM      29.94F
BEAUFORT MCAS  CLEAR     74  71  91 CALM      29.95S
HILTON HEAD    CLEAR     73  73 100 CALM      29.96R

.........CENTRAL SC.........

CITY           SKY/WX    TMP DP  RH WIND       PRES   REMARKS
COLUMBIA       PTCLDY    74  67  78 CALM      29.96R
ORANGEBURG     MOCLDY    70  68  93 CALM      29.96S
SUMTER SHAW    CLOUDY    72  68  88 NW1       29.94F

.........WESTERN SC.........

CITY           SKY/WX    TMP DP  RH WIND       PRES   REMARKS
GREENVILLE     NOT AVBL
ROCK HILL      CLEAR     68  66  93 CALM      30.00S
ANDERSON       CLEAR     70  63  78 CALM      29.99F
CLEMSON        NOT AVBL
GREENWOOD      CLEAR     69  64  84 NE3       30.00S


...................COASTAL AND OFFSHORE REPORTS..................

................LOCAL PIERS AND NC RESERVE................


STATION/POSITION TIME  SKY/WX   TEMP    WIND        PRES    VSBY
                                AIR SEA DIR/SP/G
                 (UTC)          (F)     (DEG/KT/KT) (MB)    (MI)
JOHNY MRCER PIER 0500            75 79   40/ 10/ 16 1012.3F
NC RESRV MASNBRO NOT AVBL
OCEAN CREST PIER NOT AVBL
SPRINGMAID  PIER 0500            73 77  300/  5/  6 1012.7F


................COASTAL AND OFFSHORE BUOYS................


STATION/POSITION TIME  SKY/WX   TEMP    WIND        PRES    VSBY
                                AIR SEA DIR/SP/G
                 (UTC)          (F)     (DEG/KT/KT) (MB)    (MI)
DIMNDSHOAL 41025 0550            79 80  170/ 14/ 17 1013.7F
WVE H/P(F/S)=  4/ 8 SWL H/P/D(F/S/D)=  3/120/ 8

CAPE LOOKOUT     0600            75      70/  4/  4 1013.2F
ONSLOW BAY 41036 NOT AVBL
ONSLOW BAY 41064 0508            77 76  100/  8/ 12 1013.1F
ONSLOW BAY 41159 0525               76                N/A
WVE H/P(F/S)=  4/ 7

5SE WRITBC 41038 0508            75 76   80/ 12/ 16 1013.3F
MASNBO INL 41110 0506               76                N/A
WVE H/P(F/S)=  3/ 8

WILM HARBR 41108 0526               75                N/A
WVE H/P(F/S)=  3/ 8

27SE WRITB 41037 0508            75 76   50/  8/ 12 1012.4F
FRYING PAN 41013 0600            75 80  110/ 14/ 16 1011.1F
SUNST NRSH 41024 0508            74 76   30/ 12/ 14 1012.1F
CAPRS NRSH 41029 0508            76 76  290/  8/ 12 1013.8F
EDISTO     41004 0550            76 77  290/ 10/ 12 1013.0F
WVE H/P(F/S)=  3/ 8 SWL H/P/D(F/S/D)=  3/ 8



..........OFFSHORE BUOYS BEYOND 100 NM OFFSHORE...........
.....IN A TRIANGLE---HAT TO BERMUDA TO BAHAMAS TO HAT.....


STATION/POSITION TIME  SKY/WX   TEMP    WIND        PRES    VSBY
                                AIR SEA DIR/SP/G
                 (UTC)          (F)     (DEG/KT/KT) (MB)    (MI)
150E HAT   41001 NOT AVBL
W BERMUDA  41048 0550            76 76  160/ 14/ 16 1016.2F
WVE H/P(F/S)=  4/ 7 SWL H/P/D(F/S/D)=  3/130/ 7

ATLANTIC S 41049 0550            78 79  130/ 12/ 14 1020.5F
WVE H/P(F/S)=  4/ 7 SWL H/P/D(F/S/D)=  3/140/ 7

E BAHAMAS  41046 0600            76 81  120/ 16/ 19 1015.8F
NE BAHAMAS 41047 0600            78 80  190/  6/  8 1015.0F
120E CANVRL41010 0520            80 80  180/ 12/ 14 1014.8F

END




USA.gov is the U.S. government's official web portal to all federal, state and local government web resources and services.